{"data":{"norad_id":54145,"intl_designator":"2022-138AJ","name":"ONEWEB-0529","alt_names":[],"object_type":"PAYLOAD","status":"ACTIVE","operator":null,"country":"UK","launch_date":"2022-10-22","launch_site_code":"SRILR","launch_vehicle":null,"mission":null,"orbit_class":"UNKNOWN","rcs_meters":null,"size_class":null,"mass_kg":null,"dimensions":null,"purposes":["comms"],"wikipedia_slug":null,"has_3d_model":false,"image_url":null,"decayed_at":null,"tle_current":{"epoch":"2026-05-25T03:35:13.007040Z","epoch_age_seconds":59603,"freshness":"FRESH","line1":"1 54145U 22138AJ  26145.14945610 -.00000020  00000+0 -82786-4 0  9991","line2":"2 54145  87.9151 309.5672 0001617  88.0554 272.0764 13.19726659173782","mean_motion":13.19726659,"eccentricity":0.0001617,"inclination_deg":87.9151,"raan_deg":309.5672,"arg_perigee_deg":88.0554,"mean_anomaly_deg":272.0764,"bstar":-8.2786e-5,"rev_number":17378,"period_min":109.11350393506,"perigee_km":1184.54113022,"apogee_km":1186.9872958723,"semimajor_km":7563.9012130461,"source":"CELESTRAK","updated_at":"2026-05-25T13:38:22.591659Z"}}}